Theta_e
300 300 300 301 302 302 302 301 301 301 302 302 304 307 306 306 307 308 307 305 303 303 304 304 305 305 306 306 307 305 306 308 307 310 309 309 310 310 312 311 313 316 314 313 313 315 316 316 318 329 334 333 336 336
303 303 303 302 301 301 301 301 302 302 302 303 306 306 306 307 307 307 309 306 305 303 304 304 304 304 305 304 305 305 305 307 307 311 310 309 312 310 311 313 312 314 314 317 314 313 314 316 319 319 321 324 328 332
302 301 301 301 301 302 302 302 303 303 304 304 306 306 306 307 307 308 309 305 303 304 304 303 306 306 305 305 305 305 305 304 305 306 307 309 311 310 312 310 310 311 312 314 316 316 317 317 317 319 321 323 324 328
301 301 301 301 302 302 302 303 304 305 305 306 307 307 307 307 308 308 308 306 303 302 305 308 305 304 305 304 304 304 305 304 304 306 308 309 310 310 312 312 313 312 313 314 315 315 315 316 317 317 318 324 325 328
301 301 301 302 302 305 306 306 305 305 307 307 307 307 307 308 308 308 307 306 305 305 308 308 307 306 305 305 305 304 305 305 305 308 308 309 308 310 310 311 311 311 313 314 315 314 315 315 316 317 319 319 319 322
301 301 303 305 307 306 305 305 305 306 307 307 307 307 308 308 308 308 310 304 305 304 305 309 307 307 306 304 304 305 305 305 305 307 306 306 306 308 312 312 311 312 312 313 314 314 314 315 316 316 317 318 318 321
302 305 307 307 305 306 306 306 307 308 307 307 307 308 309 308 308 308 310 306 304 304 306 307 309 307 306 305 304 305 306 306 306 305 305 306 307 308 309 311 311 311 312 314 314 314 315 315 315 316 316 317 318 324
307 307 306 305 306 306 306 309 308 308 307 307 308 308 308 308 307 308 306 304 304 304 304 308 310 310 307 310 310 305 306 305 305 304 304 307 307 306 309 310 310 310 311 312 312 312 312 312 312 314 315 318 320 325
307 306 306 307 306 307 310 309 308 308 308 308 307 308 310 308 309 306 305 304 303 303 305 304 308 312 307 310 313 308 306 306 304 305 304 306 306 309 309 307 307 312 313 311 311 311 311 312 313 316 318 319 328 333
307 307 307 307 308 310 311 309 309 308 308 308 309 314 314 308 306 304 303 304 305 303 301 302 301 307 306 310 313 312 312 311 313 310 308 306 308 307 312 313 315 322 325 314 313 314 316 319 319 317 319 326 330 330
308 308 307 308 310 312 312 312 312 309 309 312 315 315 308 307 306 309 312 308 306 309 303 304 304 307 307 311 314 311 312 309 319 317 313 312 312 312 310 310 314 315 320 322 320 320 324 322 321 324 327 329 330 330
308 307 307 311 312 312 312 314 314 313 313 312 310 308 308 313 316 317 316 314 315 318 317 312 314 307 308 308 314 315 316 315 324 319 316 314 313 312 310 310 312 314 315 317 318 323 324 322 321 327 329 329 328 322
309 307 310 313 313 312 312 314 314 313 310 311 315 317 318 316 317 313 314 315 316 318 319 319 320 319 316 313 320 322 322 322 318 316 312 313 314 312 311 310 311 312 312 313 315 316 315 315 315 317 319 322 322 320
310 309 312 313 313 313 313 314 314 314 316 318 317 318 317 317 317 316 318 317 316 316 317 319 321 322 320 321 319 320 320 318 319 317 315 314 312 311 312 312 313 313 312 311 312 313 313 312 311 311 312 312 315 319
311 310 313 313 313 314 313 313 314 318 315 316 316 319 316 314 313 313 313 314 313 314 318 320 320 317 318 319 317 316 318 318 315 314 312 311 310 311 310 311 311 313 313 314 311 310 310 311 310 309 308 309 310 311
312 313 314 314 313 313 313 315 316 316 315 315 315 316 315 315 314 313 313 313 313 315 319 318 318 319 316 315 315 314 317 316 312 310 310 309 310 310 310 309 310 309 311 311 311 310 309 309 310 309 307 306 306 307
312 315 314 315 313 313 314 317 316 315 315 315 315 314 314 314 314 313 312 311 312 314 315 314 314 315 313 313 314 312 313 309 307 311 308 308 308 309 309 308 308 308 308 308 309 309 309 308 308 308 310 308 307 305
313 313 315 316 313 314 317 317 315 315 315 315 316 315 314 313 312 311 311 310 311 312 311 309 309 309 310 309 310 309 310 309 310 309 307 307 307 307 306 307 306 307 307 306 307 307 307 307 308 308 306 307 307 307
311 314 316 316 313 316 318 318 316 316 316 316 316 315 314 313 311 309 309 308 308 308 308 308 308 308 307 306 306 306 306 307 308 308 307 305 304 304 303 303 303 303 304 305 305 306 306 306 306 305 305 305 305 304
312 314 314 317 313 318 318 319 317 316 317 317 317 317 316 315 312 310 310 309 308 308 308 307 307 305 305 304 303 304 304 304 305 306 306 304 302 302 302 302 301 300 301 302 303 303 304 304 303 303 303 302 302 301
315 315 316 318 319 318 319 319 319 319 318 318 319 319 318 316 314 311 310 309 309 308 307 306 305 305 304 303 302 301 301 301 302 302 302 302 301 301 300 300 300 299 299 300 301 301 303 303 303 302 301 301 301 301
316 314 319 320 320 319 321 318 320 319 320 320 320 319 318 318 315 313 311 310 310 309 308 306 305 305 304 304 302 301 300 300 300 300 299 299 300 300 299 299 299 299 299 299 300 300 300 300 300 301 301 300 299 298
316 316 320 320 322 320 321 320 323 322 321 321 320 319 318 318 317 313 311 310 310 309 308 307 305 303 303 302 302 301 300 299 300 299 298 298 298 298 298 298 298 298 299 298 298 298 298 297 297 298 298 298 298 298
315 320 323 323 323 321 321 321 321 322 322 321 320 319 319 318 316 313 310 309 309 310 310 310 307 305 304 303 303 301 300 299 299 298 297 297 298 298 297 297 297 297 297 297 297 297 297 297 296 297 297 297 296 296
321 322 322 317 322 322 320 319 319 319 321 321 320 319 320 317 316 313 310 308 309 310 310 309 308 307 306 304 302 301 299 298 298 298 297 296 296 297 297 297 297 296 296 297 297 297 296 296 296 296 295 295 295 295
321 324 324 321 322 322 320 319 318 318 319 321 321 321 319 316 314 311 309 308 309 309 308 308 308 307 305 302 302 301 299 298 297 297 296 295 295 295 296 297 297 296 295 295 296 296 296 295 295 295 295 295 293 295
322 322 323 322 324 322 321 319 318 318 319 319 320 321 317 314 311 311 310 310 310 309 308 306 305 304 303 301 299 298 297 297 296 296 295 295 295 294 294 295 295 294 294 295 295 295 295 295 295 295 295 295 295 295
322 322 322 322 323 322 322 321 320 318 317 317 317 317 315 313 313 312 311 310 310 308 305 304 303 302 301 299 299 298 297 296 296 297 296 295 295 294 294 294 294 292 293 293 293 295 294 295 295 295 295 295 295 296
324 322 321 323 323 322 322 321 320 319 317 316 317 316 315 314 314 312 311 311 310 307 304 303 301 300 299 298 298 298 297 297 297 298 298 297 296 295 294 294 294 294 294 294 293 292 292 292 293 294 295 295 295 295
326 323 324 323 323 322 322 320 320 319 317 316 316 315 315 315 313 311 311 310 310 305 303 302 301 301 301 300 299 299 297 296 296 296 297 297 295 295 294 294 294 294 294 294 294 294 293 293 294 294 294 294 295 295
324 324 325 325 324 324 322 320 318 317 316 316 316 316 317 317 314 309 309 308 305 302 301 301 301 301 300 300 299 298 298 297 296 296 295 295 295 294 294 294 294 294 294 294 294 294 294 294 294 294 294 294 294 294
325 326 325 325 325 323 320 320 320 320 320 319 319 317 317 317 318 312 304 303 301 302 300 302 302 300 299 298 298 297 295 296 296 296 295 294 294 294 294 293 293 293 294 294 294 294 294 294 294 294 293 294 294 294
324 324 325 324 325 325 322 321 322 322 321 321 320 318 318 318 317 309 302 302 303 303 302 301 300 299 298 298 297 296 296 295 293 293 292 292 292 292 293 293 293 293 293 293 293 293 294 294 294 294 294 294 294 294
Wind_Speed
27 29 31 32 34 34 35 35 34 33 34 33 31 30 28 24 23 21 14 18 14 3 5 9 15 10 9 8 8 3 7 3 4 4 4 3 6 2 6 11 4 9 9 11 14 17 21 9 11 11 10 10 12 12
29 31 32 34 35 36 36 36 36 35 35 33 31 30 28 25 24 19 8 20 23 4 4 6 14 22 23 22 9 4 8 4 2 4 1 2 5 4 7 9 9 12 11 9 11 10 10 9 13 14 15 16 17 17
30 33 35 36 37 37 36 35 35 34 33 30 31 29 26 25 21 14 7 14 10 1 5 10 11 11 16 21 21 8 6 8 7 8 3 3 5 5 7 9 15 17 16 14 16 20 22 17 20 17 16 20 20 19
32 34 36 37 37 38 36 35 34 33 30 32 31 30 25 21 14 6 5 12 8 3 3 5 6 7 8 12 18 23 18 5 10 4 5 4 4 7 8 12 13 12 11 14 19 21 23 22 21 23 17 13 19 21
35 36 37 38 38 36 34 33 31 30 31 30 30 28 20 12 4 0 3 9 16 4 2 5 20 1 1 8 17 18 18 13 5 3 4 4 7 7 11 14 18 17 24 17 18 19 17 19 20 16 14 18 19 20
36 38 37 36 34 34 31 29 29 29 28 29 27 21 11 1 2 3 3 1 9 8 2 3 6 1 1 2 10 13 14 10 8 3 4 4 13 7 5 8 19 20 23 22 22 24 24 23 20 21 21 23 23 22
38 36 33 31 31 30 28 26 25 27 28 24 18 9 3 7 4 2 3 1 5 6 1 3 4 3 2 3 3 6 11 2 3 2 4 4 3 4 4 14 31 23 25 25 22 19 24 25 21 21 20 24 23 23
35 32 29 28 28 27 24 26 29 26 22 13 5 12 13 10 5 3 7 3 8 1 1 2 4 3 2 2 3 3 2 3 4 2 2 3 2 3 5 18 23 27 25 24 24 22 23 25 25 27 26 22 22 22
31 27 26 26 25 24 28 31 25 21 13 3 10 7 4 4 2 3 4 7 5 4 2 1 2 3 5 3 1 3 3 2 2 2 2 2 2 3 17 28 31 28 11 21 19 21 21 21 25 25 24 21 22 16
26 26 26 24 23 27 32 25 22 15 4 10 2 4 2 3 8 6 1 1 2 2 1 2 1 3 2 2 2 2 1 2 1 2 2 1 3 11 23 28 23 14 11 16 17 18 18 20 16 20 19 20 9 8
27 26 22 22 25 30 23 22 19 5 5 1 1 3 2 8 2 2 2 3 2 2 2 3 3 3 2 2 3 2 1 1 3 3 3 3 11 22 28 32 25 24 19 6 10 12 9 8 12 13 6 6 5 4
27 22 19 22 27 28 21 19 14 4 2 3 8 6 4 3 3 5 5 4 3 4 3 3 3 3 3 2 2 0 2 1 6 7 5 6 12 25 23 28 31 26 29 27 24 11 13 9 6 6 8 9 16 17
24 18 16 23 29 24 20 21 19 7 9 3 2 2 3 5 7 5 8 4 6 7 5 9 8 2 2 3 3 3 8 5 2 4 3 7 17 20 20 17 21 25 27 27 27 25 26 25 29 19 20 23 24 18
21 15 16 23 27 22 20 22 22 7 1 3 4 7 5 6 6 3 8 9 7 8 13 9 5 4 4 3 3 6 5 5 5 5 6 9 19 21 20 17 17 19 22 23 25 25 24 23 22 33 34 29 23 17
17 11 16 22 21 20 15 20 21 10 6 4 5 6 7 5 7 8 8 7 8 8 7 6 3 5 6 4 5 6 5 5 5 5 4 12 16 16 17 17 18 18 18 18 18 19 20 23 20 24 30 30 28 26
14 6 13 21 16 18 10 12 13 8 4 4 7 5 7 7 10 11 11 11 10 8 2 3 5 5 7 4 8 7 6 4 4 5 8 12 16 15 15 17 16 18 20 18 21 22 23 21 17 19 30 29 28 30
5 4 16 19 16 8 14 4 6 5 5 4 4 6 7 7 9 10 11 11 13 9 5 4 6 5 4 4 4 3 4 3 6 9 8 11 13 14 14 14 19 22 21 24 26 26 24 21 24 23 16 20 24 25
2 11 14 18 14 5 5 6 4 4 4 3 4 6 7 8 9 10 10 11 8 7 8 5 4 11 4 6 5 7 7 5 4 7 7 10 13 16 17 16 21 21 23 23 23 23 26 23 19 16 20 20 21 22
14 11 13 14 11 4 2 3 3 3 2 1 1 3 5 7 8 11 9 12 11 10 3 4 5 7 7 6 7 7 8 7 7 5 5 11 13 16 18 18 19 20 20 20 21 18 19 22 22 20 19 21 20 22
6 6 11 9 6 1 2 3 1 2 0 3 1 1 3 5 6 7 8 9 9 7 6 5 7 7 7 7 6 6 7 8 7 6 6 7 14 16 17 17 17 17 16 16 17 21 17 18 20 19 20 21 21 19
5 5 5 5 2 3 2 1 2 3 2 1 2 2 2 1 4 7 7 6 6 7 6 5 5 5 7 7 9 10 9 11 7 6 7 7 13 14 14 16 16 15 15 14 12 14 16 14 14 15 17 17 16 15
4 7 3 3 1 1 2 2 2 2 1 2 1 2 2 2 4 4 4 5 5 5 3 3 3 3 3 5 8 9 9 10 6 7 6 8 7 10 11 13 14 12 13 14 14 13 13 14 13 12 12 11 14 16
5 4 1 1 2 2 1 1 1 0 2 1 2 1 1 2 2 2 1 1 3 3 1 1 1 1 3 2 3 6 9 11 9 8 9 11 8 9 11 10 10 10 10 12 12 12 12 12 13 13 11 11 11 10
5 2 2 2 1 1 2 1 1 1 1 1 2 2 1 3 1 1 3 2 3 2 1 3 5 4 5 7 2 6 9 13 12 9 10 11 9 8 8 8 9 9 8 8 10 10 11 11 10 11 11 10 10 10
2 3 1 3 1 2 1 1 1 2 2 1 2 0 1 1 1 1 3 2 3 4 4 1 3 4 5 2 1 4 5 11 12 9 10 11 10 9 8 8 6 8 11 11 10 10 10 10 10 10 10 11 10 9
2 1 1 1 1 2 2 2 2 3 3 2 1 1 2 2 2 1 2 2 2 3 4 6 6 5 1 1 3 6 8 9 10 9 9 9 10 10 10 8 9 9 11 10 10 11 9 9 9 9 8 6 6 8
1 2 2 1 2 2 2 2 2 3 2 2 1 2 2 3 2 2 4 4 1 3 2 3 5 5 4 4 3 3 4 6 8 8 7 8 8 9 10 10 10 11 9 8 9 8 9 8 8 9 8 6 7 8
1 3 3 3 3 2 3 2 2 2 2 1 2 3 2 1 3 2 1 4 3 3 3 4 4 4 5 5 3 2 3 3 1 5 3 1 4 8 10 9 8 8 4 7 10 10 10 9 9 8 8 8 8 8
3 3 3 5 4 3 3 3 3 2 1 3 3 2 1 2 3 1 2 3 1 2 3 3 4 5 5 4 3 2 3 5 6 6 7 5 7 9 10 10 9 8 7 7 2 4 7 9 11 11 10 9 8 7
2 4 3 3 3 3 1 2 3 1 2 3 1 1 1 2 3 2 1 1 2 3 4 5 4 1 3 5 3 2 1 3 5 8 7 7 8 9 9 9 10 9 9 9 9 4 4 7 6 7 8 9 8 9
2 4 3 3 3 1 2 1 2 2 3 3 2 4 2 2 3 4 3 3 5 6 6 6 3 4 5 7 9 9 7 4 3 4 7 8 8 9 10 8 9 10 10 8 8 7 8 7 7 8 8 9 9 9
3 4 3 3 3 2 2 3 2 3 1 2 1 1 1 2 1 3 4 4 5 5 5 2 5 7 6 7 8 7 3 3 3 5 8 10 10 11 8 5 8 9 9 8 8 7 7 7 7 8 9 9 9 9
3 4 4 4 3 2 3 3 2 2 1 1 1 1 0 3 4 3 3 3 3 5 5 8 7 7 7 7 8 6 5 7 6 6 7 8 12 9 5 6 8 9 9 9 8 8 8 8 8 8 7 8 10 10
Wind_Direction
320 320 322 321 320 320 319 320 322 321 322 321 315 310 308 305 298 286 244 234 200 219 244 232 253 243 258 241 255 285 293 187 257 260 271 254 270 282 283 276 247 196 203 216 233 242 238 272 310 237 8 325 330 329
320 320 320 319 319 318 318 321 321 324 322 321 313 311 311 311 306 304 265 223 218 196 254 279 256 254 251 247 254 241 267 292 294 262 213 297 248 250 276 273 200 247 260 233 230 235 260 306 300 313 317 315 316 309
322 322 322 321 319 318 320 320 321 323 321 320 317 314 315 315 315 307 245 195 171 260 274 250 246 264 236 237 233 224 229 233 252 274 298 303 270 292 263 255 260 265 273 264 271 258 267 274 275 296 314 297 300 305
324 324 322 320 319 320 320 323 323 322 323 321 318 318 320 317 319 298 207 205 160 130 265 277 220 242 253 240 231 221 238 246 255 245 235 242 244 257 269 271 273 271 281 261 261 255 263 271 275 278 288 310 305 308
327 325 322 322 321 321 326 325 323 323 324 319 323 324 325 318 322 282 199 204 206 170 286 307 295 37 273 237 223 225 230 232 227 222 236 241 260 281 262 264 263 259 256 251 255 256 258 257 258 283 291 294 297 298
327 324 324 324 322 324 325 327 326 327 326 328 328 329 321 294 136 150 146 51 222 214 308 296 3 254 223 215 208 215 218 219 218 207 240 257 259 280 261 262 261 257 252 250 257 262 268 272 270 275 281 284 285 283
327 326 326 325 327 328 331 333 336 337 334 338 333 348 78 120 120 25 36 28 170 176 268 284 291 127 326 167 209 219 214 179 194 212 235 250 242 221 254 258 265 264 268 271 268 263 256 256 262 269 277 281 281 272
329 330 331 333 334 336 341 342 340 337 342 345 32 94 95 99 93 53 23 82 140 104 283 301 286 279 53 268 216 161 175 159 197 238 248 250 218 228 256 263 277 278 261 253 251 248 258 264 268 267 264 266 259 264
333 334 338 339 339 345 345 342 342 341 344 143 129 95 94 47 53 81 89 118 75 51 347 321 302 311 358 266 291 164 129 175 208 232 245 280 280 254 283 291 287 283 235 236 235 237 240 240 246 250 251 253 252 255
339 341 340 340 347 349 345 346 345 342 101 137 149 230 67 55 123 114 56 21 24 31 76 263 301 277 306 299 296 357 139 41 293 211 228 244 264 298 340 347 352 345 357 204 218 235 239 246 212 233 238 249 253 268
343 343 345 347 350 350 355 351 347 107 95 190 46 66 57 170 225 219 32 9 336 317 181 247 249 290 178 300 330 62 39 333 334 25 20 338 0 350 350 351 6 23 31 40 214 229 244 168 212 216 196 259 180 35
346 346 347 348 354 358 4 8 13 69 64 122 116 115 139 251 13 352 18 346 327 331 318 294 310 224 282 235 286 155 332 260 39 2 6 14 351 344 353 354 1 12 31 28 32 40 109 131 201 109 81 78 67 55
346 346 346 352 3 359 9 26 28 68 110 97 91 49 28 19 33 32 348 325 319 338 337 330 324 266 231 227 272 352 18 32 5 26 32 358 341 346 351 356 3 15 19 21 28 46 54 50 51 54 50 48 60 59
346 346 349 0 2 2 13 27 29 48 23 41 34 18 32 14 10 309 314 308 299 290 304 330 333 348 1 13 0 357 14 6 36 24 13 339 343 336 344 355 6 17 26 26 24 28 35 40 46 48 45 39 44 60
348 347 356 0 359 5 23 31 28 28 35 46 33 34 21 322 339 339 329 316 336 320 301 320 308 16 25 40 17 10 16 28 26 12 320 331 338 341 346 358 7 16 29 36 40 33 32 31 42 45 37 34 31 35
348 352 350 348 350 8 17 45 34 26 44 55 42 11 355 359 1 8 355 353 348 331 268 349 14 19 38 42 18 16 354 6 348 324 322 327 345 355 358 7 14 19 22 35 35 47 44 38 37 51 48 40 32 34
343 348 345 348 349 9 22 53 40 45 42 48 31 38 10 11 0 1 358 358 338 12 25 52 45 15 16 44 27 30 339 283 293 311 355 1 353 355 7 18 18 21 21 22 27 34 49 48 48 40 40 32 52 50
324 332 348 353 354 21 25 36 70 62 73 46 38 24 22 16 5 9 9 11 10 12 32 57 59 39 46 20 8 2 359 351 307 339 5 7 11 14 20 20 22 19 21 23 25 30 32 33 42 48 43 38 53 55
323 337 356 357 5 22 38 59 17 95 83 77 54 34 31 29 26 24 21 21 23 28 55 61 53 34 37 23 357 357 356 357 341 353 17 25 18 20 14 18 20 19 18 22 23 29 37 40 39 39 46 46 48 44
317 326 349 357 20 359 96 83 312 91 202 75 200 358 5 24 22 34 34 35 38 33 45 65 60 43 30 25 5 358 360 341 343 346 7 24 5 5 14 10 11 10 17 19 29 25 33 36 35 42 44 48 52 45
1 325 339 19 22 48 55 94 92 10 77 298 48 265 33 306 39 35 36 40 52 53 69 59 64 64 29 25 21 357 17 356 356 1 355 354 352 1 4 4 6 16 15 17 25 31 26 30 36 43 46 46 52 59
320 340 346 350 13 111 102 38 8 93 257 12 271 308 355 13 27 38 343 42 52 49 38 37 42 4 62 32 19 13 7 347 1 342 348 342 1 359 5 10 8 15 27 20 26 35 38 35 25 38 41 55 61 51
346 353 315 311 195 82 139 194 232 275 295 16 270 281 6 25 50 249 75 37 81 66 343 274 170 251 324 12 356 29 15 353 358 3 355 340 352 10 356 10 18 17 22 30 26 29 37 19 26 16 27 25 26 31
2 358 1 24 6 107 166 186 177 233 236 295 314 320 18 5 331 298 24 38 49 4 233 218 230 249 220 206 330 32 10 355 355 2 9 344 348 6 10 12 16 25 5 21 22 24 22 28 16 27 20 20 25 27
329 11 26 316 201 265 304 319 297 266 296 327 291 200 75 249 291 21 1 40 15 11 20 46 261 290 312 340 359 46 14 358 355 345 17 355 351 352 6 5 44 36 11 5 9 18 19 17 22 22 35 28 22 36
74 129 74 9 51 314 338 305 304 304 302 268 242 90 221 254 257 330 21 26 44 33 17 9 354 336 134 0 350 21 23 2 348 356 18 359 2 355 352 351 353 25 9 354 3 7 15 17 28 21 34 59 47 12
159 167 166 229 285 276 260 248 285 274 265 262 196 229 234 255 257 166 154 175 227 81 55 8 14 4 25 91 88 71 30 18 19 9 4 3 2 0 351 347 347 356 341 348 4 11 7 9 16 18 14 27 32 18
279 203 242 178 234 241 281 278 246 239 246 167 246 232 252 266 337 98 163 145 144 136 117 86 65 62 82 95 96 84 43 17 359 358 335 28 21 20 4 357 7 358 342 3 357 359 7 9 5 8 9 6 12 15
222 200 232 256 251 228 236 242 256 222 207 211 259 291 268 74 26 38 129 124 146 178 142 121 96 103 110 104 86 31 5 356 358 10 15 14 16 19 7 4 360 4 350 341 6 3 1 352 358 351 355 356 5 1
197 189 244 255 250 256 230 246 311 30 217 281 346 169 172 76 57 47 65 346 297 98 80 64 99 97 30 353 19 23 314 357 13 13 12 13 10 1 357 357 358 355 351 343 334 355 340 319 333 337 346 348 350 354
162 203 243 248 267 290 328 290 239 249 232 238 224 283 324 136 121 54 38 11 98 116 104 105 108 50 23 22 13 355 2 99 77 46 17 360 360 0 355 349 353 353 351 350 351 357 4 350 349 342 342 346 347 338
205 230 251 259 258 138 233 232 234 248 219 227 242 241 179 215 103 93 56 85 105 108 119 137 60 69 39 30 21 25 28 63 94 46 18 6 0 355 350 356 4 1 358 353 351 349 348 349 353 349 344 343 339 334
246 242 253 273 244 225 181 225 232 256 202 227 115 105 39 7 63 91 94 76 47 104 101 85 83 76 64 39 30 58 86 83 71 47 47 41 17 13 19 13 3 352 350 348 348 344 340 338 343 349 348 350 346 341